Home > Weather > Creston > Past weeks

Flag for Canada Past Weather in Creston, British Columbia, Canada — Yesterday and Last 2 Weeks

Now
72 °F

Mild.


Feels Like: 77 °F
Forecast: 56 / 87 °F
Wind: 2 mph from North

Location: Creston

Current Time: Jun 27, 2016 at 11:10:27 PM

Latest Report: Jun 27, 2016 at 10:00 PM


Visibility: N/A

Pressure: 30.05 "Hg (27.98 "Hg at 617m altitude)

Humidity: 41%

Dew Point: 47 °F

Location of CrestonLocation

Past Weather in Creston — Graph

°F

Creston Temperature Yesterday

Maximum temperature yesterday: 79 °F (at 4:00 PM)
Minimum temperature yesterday: 50 °F (at 6:00 AM)
Average temperature yesterday: 65 °F

High & Low Weather Summary for the Past Weeks

 TemperatureHumidityPressure
High87 °F (Jun 27, 5:00 PM)96% (Jun 17, 6:00 AM)30.40 "Hg (Jun 17, 6:00 AM)
Low40 °F (Jun 15, 4:00 AM)22% (Jun 27, 5:00 PM)29.74 "Hg (Jun 13, 5:00 PM)
Average59 °F63%30.07 "Hg
* Reported Jun 12 10:00 PM — Jun 27 10:00 PM, Creston, Weather by CustomWeather, © 2016

Note: Actual official high and low records may vary slightly from our data, if they occured in-between our weather recording intervals... More about our weather records

Advertising

Creston Weather History for the Previous 24 Hours

Scroll right to see more
 ConditionsComfort  
Time TempWeatherWind HumidityBarometerVisibility
10:00 PM
Mon, Jun 27
72 °FMild.2 mph41%30.05 "HgN/A
9:00 PM72 °FMild.1 mph47%30.04 "HgN/A
8:00 PM78 °FWarm.2 mph46%30.04 "HgN/A
7:00 PM86 °FPleasantly warm.5 mph27%30.03 "HgN/A
6:00 PM86 °FPleasantly warm.5 mph25%30.06 "HgN/A
5:00 PM87 °FPleasantly warm.3 mph22%30.08 "HgN/A
4:00 PM87 °FPleasantly warm.3 mph26%30.10 "HgN/A
3:00 PM83 °FPleasantly warm.5 mph30%30.12 "HgN/A
2:00 PM81 °FPleasantly warm.3 mph34%30.15 "HgN/A
1:00 PM78 °FPleasantly warm.3 mph36%30.17 "HgN/A
12:00 PM75 °FMild.5 mph41%30.19 "HgN/A
11:00 AM71 °FMild.6 mph45%30.22 "HgN/A
10:00 AM67 °FMild.5 mph52%30.24 "HgN/A
9:00 AM65 °FMild.9 mph57%30.26 "HgN/A
8:00 AM62 °FCool.2 mph65%30.26 "HgN/A
7:00 AM61 °FCool.1 mph63%30.27 "HgN/A
6:00 AM57 °FCool.3 mph64%30.27 "HgN/A
5:00 AM55 °FCool.3 mph67%30.26 "HgN/A
4:00 AM57 °FRefreshingly cool.3 mph58%30.25 "HgN/A
3:00 AM58 °FCool.1 mph63%30.24 "HgN/A
2:00 AM58 °FCool.1 mph63%30.24 "HgN/A
1:00 AM60 °FRefreshingly cool.5 mph59%30.24 "HgN/A
12:00 AM63 °FMild.1 mph55%30.23 "HgN/A
11:00 PM
Sun, Jun 26
64 °FMild.5 mph52%30.22 "HgN/A
Weather by CustomWeather, © 2016

See weather overviewHow to use our weather pages